Flag for Brazil Weather past 2 weeks in Fernando de Noronha, Pernambuco, Brazil

Now
77 °F

Passing clouds.


Feels Like: 79 °F
Forecast: 76 / 80 °F
Wind: 10 mph from Southeast

Location: Natal Aeroporto

Current Time: Oct 24, 2014 at 5:28:13 AM

Latest Report: Oct 24, 2014 at 5:00 AM


Visibility: N/A

Pressure: 29.92 "Hg

Humidity: 69%

Dew point: 66 °F

Location of Fernando de NoronhaLocation

Historic Weather in Fernando de Noronha — Graph

°F

Fernando de Noronha temperature yesterday

Maximum temperature yesterday: 84 °F (at 10:00 AM)
Minimum temperature yesterday: 72 °F (at 5:00 AM)
Average temperature yesterday: 79 °F

Past Weeks' High & Low Weather Summary

 TemperatureHumidityPressure
High86 °F (Oct 9, 11:00 AM)100% (Oct 16, 7:00 PM)30.04 "Hg (Oct 16, 7:00 PM)
Low41 °F (Oct 16, 7:00 PM)48% (Oct 20, 11:00 AM)29.83 "Hg (Oct 9, 4:00 PM)
Average79 °F71%29.95 "Hg
* Reported Oct 9 4:00 AM — Oct 24 4:00 AM, Fernando de Noronha, Weather by CustomWeather, © 2014

Note: Actual official high and low records may vary slightly from our data, if they occured in-between our weather recording intervals... More about our weather records

Advertising

Fernando de Noronha weather history for previous 24 hours

 ConditionsComfort  
Time TempWeatherWind HumidityBarometerVisibility
4:00 AM
Oct 24
77 °FPassing clouds.13 mph69%29.92 "HgN/A
3:00 AM77 °FPassing clouds.15 mph69%29.92 "HgN/A
2:00 AM79 °FPassing clouds.13 mph70%29.92 "HgN/A
1:00 AM79 °FPassing clouds.17 mph65%29.95 "HgN/A
12:00 AM77 °FPassing clouds.13 mph79%29.95 "HgN/A
11:00 PM
Oct 23
77 °FPassing clouds.13 mph74%29.98 "HgN/A
10:00 PM77 °FPartly cloudy.20 mph69%29.98 "HgN/A
9:00 PM77 °FPassing clouds.20 mph69%29.98 "HgN/A
8:00 PM77 °FPartly cloudy.17 mph74%29.95 "HgN/A
7:00 PM79 °FPartly sunny.20 mph74%29.92 "HgN/A
6:00 PM79 °FPartly sunny.21 mph74%29.92 "HgN/A
5:00 PM81 °FBroken clouds.22 mph74%29.89 "HgN/A
4:00 PM82 °FPartly sunny.22 mph66%29.89 "HgN/A
3:00 PM82 °FPartly sunny.21 mph66%29.89 "HgN/A
2:00 PM84 °FPartly sunny.20 mph58%29.92 "HgN/A
1:00 PM84 °FPartly sunny.20 mph62%29.95 "HgN/A
12:00 PM84 °FPartly sunny.17 mph58%29.98 "HgN/A
11:00 AM84 °FPartly sunny.20 mph58%29.98 "HgN/A
10:00 AM84 °FPartly sunny.20 mph58%30.01 "HgN/A
9:00 AM82 °FPartly sunny.18 mph62%30.01 "HgN/A
8:00 AM81 °FBroken clouds.15 mph66%30.01 "HgN/A
7:00 AM73 °FBroken clouds.6 mph83%29.98 "HgN/A
6:00 AM72 °FPartly cloudy.6 mph88%29.95 "HgN/A
5:00 AM72 °FPassing clouds.5 mph88%29.95 "HgN/A
Weather by CustomWeather, © 2014

See weather overviewHow to use our weather pages